This is the latest recevied weather packets stored in our database for station/object KC8RFE-1. If no packets are shown the sender has not sent any weather packets the latest 1 day(s).
| Time | Temp. | Humidity | Pressure | Rain* | Wind** | Luminosity | Snow |
|---|---|---|---|---|---|---|---|
| 1777998210 | 11.67° C | 6% | - | 0 mm | 3.13 m/s, 40° | - | - |
| 1777997910 | 11.11° C | 6% | - | 0 mm | 3.58 m/s, 52° | - | - |
| 1777997610 | 11.11° C | 6% | - | 0 mm | 3.58 m/s, 27° | - | - |
| 1777997309 | 11.11° C | 6% | - | 0 mm | 3.58 m/s, 22° | - | - |
| 1777997009 | 11.11° C | 6% | - | 0 mm | 3.58 m/s, 26° | - | - |
| 1777996709 | 10.56° C | 6% | - | 0 mm | 4.02 m/s, 49° | - | - |
| 1777996409 | 10° C | 6% | - | 0 mm | 3.13 m/s, 25° | - | - |
| 1777996109 | 10° C | 6% | - | 0 mm | 3.13 m/s, 41° | - | - |
| 1777995809 | 9.44° C | 6% | - | 0 mm | 2.68 m/s, 34° | - | - |
| 1777995509 | 9.44° C | 6% | - | 0 mm | 3.13 m/s, 43° | - | - |
| 1777995209 | 9.44° C | 6% | - | 0 mm | 2.68 m/s, 33° | - | - |
| 1777994909 | 9.44° C | 6% | - | 0 mm | 3.13 m/s, 27° | - | - |
| 1777994609 | 9.44° C | 7% | - | 0 mm | 3.58 m/s, 34° | - | - |
| 1777994309 | 9.44° C | 7% | - | 0 mm | 3.13 m/s, 33° | - | - |
| 1777994009 | 9.44° C | 7% | - | 0 mm | 2.24 m/s, 24° | - | - |
| 1777993709 | 9.44° C | 7% | - | 0 mm | 1.34 m/s, 7° | - | - |
| 1777993409 | 9.44° C | 6% | - | 0 mm | 1.79 m/s, 17° | - | - |
| 1777993109 | 9.44° C | 6% | - | 0 mm | 2.24 m/s, 36° | - | - |
| 1777992809 | 9.44° C | 6% | - | 0 mm | 1.79 m/s, 48° | - | - |
| 1777992509 | 10° C | 6% | - | 0 mm | 1.34 m/s, 52° | - | - |
| 1777992209 | 10° C | 6% | - | 0 mm | 0.45 m/s, 12° | - | - |
| 1777991909 | 10° C | 6% | - | 0 mm | 0.89 m/s, 303° | - | - |
| 1777991609 | 10° C | 6% | - | 0 mm | 1.79 m/s, 317° | - | - |
| 1777991309 | 10° C | 6% | - | 0 mm | 1.34 m/s, 339° | - | - |
| 1777991009 | 10° C | 6% | - | 0 mm | 2.68 m/s, 30° | - | - |
* Rain latest hour (hover to see other rain measurements)
** Current wind speed in m/s (hover to see current wind gust speed)